Temp_Advection
nan nan nan nan nan nan nan nan nan nan nan nan nan nan nan nan nan nan nan nan nan nan nan nan nan nan nan nan nan nan nan nan nan nan nan nan nan nan nan nan nan nan nan nan
nan -0 -1 -0 -0 -0 -0 0 -0 -0 -0 0 0 0 0 0 -0 -0 -1 -1 -0 -0 0 1 1 1 0 0 0 0 0 0 0 0 0 0 0 -0 -0 -0 -0 -0 -1 nan
nan -0 -0 0 -0 0 0 -0 -0 -0 -0 0 0 0 -0 -0 -0 0 -0 1 1 1 1 0 1 1 0 0 0 0 0 0 0 0 0 0 -0 -0 -0 -0 -0 -1 -1 nan
nan -1 0 0 0 -0 -0 -0 -0 0 0 0 0 0 -0 -0 -0 0 1 3 1 2 1 0 0 0 0 0 0 0 0 0 0 0 0 0 -0 -0 -0 -0 -1 -1 -1 nan
nan -0 0 -0 -0 -0 -0 0 0 0 0 0 0 0 -0 0 0 0 1 1 1 2 1 0 1 0 0 0 0 0 0 0 0 0 0 0 -0 -0 -0 -0 -0 -0 -1 nan
nan -0 -0 -0 -0 -0 -0 -0 -0 -0 0 -0 0 0 -0 0 0 0 0 1 1 1 1 1 1 0 0 0 0 0 0 0 0 0 0 0 -0 -0 -0 -0 -0 -0 -0 nan
nan 0 -0 0 0 0 0 -0 -0 0 -0 -1 0 0 0 -0 -0 -0 0 0 0 0 0 0 -0 -0 -0 -0 0 0 0 0 0 0 0 -0 -0 -0 -0 -0 -0 -0 -0 nan
nan -0 -0 0 -0 0 0 0 -0 -0 -0 0 0 0 0 -0 -0 0 1 -0 0 -0 0 -1 -1 -1 -0 -0 -0 -0 -0 0 0 -0 -0 -0 -0 -0 -0 -0 -0 -0 -0 nan
nan -0 -0 -0 -0 -0 0 -0 -0 0 -0 -0 0 0 -0 -0 -0 -1 -0 0 0 -0 -1 -1 -1 0 0 0 -0 0 0 0 0 0 0 0 -0 -0 -0 -0 -0 -0 -0 nan
nan -0 -0 -0 0 0 0 -0 -0 -0 -0 -0 0 0 0 0 -0 -0 -0 -0 -1 -1 -2 -1 1 2 1 1 1 1 0 0 0 0 0 0 0 -0 -0 -0 -0 -0 -0 nan
nan 0 -0 -0 -0 -0 0 0 -0 -0 0 0 0 0 -0 -0 -0 -0 -0 -2 -2 -2 -2 0 1 1 1 1 1 0 0 0 0 0 0 0 0 -0 -0 -0 -0 -0 -0 nan
nan -0 -0 -0 0 -0 -0 -0 -0 0 0 -0 -0 -0 -0 -0 -0 -0 -1 -1 -1 -1 1 3 2 1 1 1 1 0 0 0 0 1 1 0 -0 0 0 -0 -0 -0 -0 nan
nan -0 -0 -0 0 -0 -0 -0 -0 -0 -0 -0 -0 -0 -0 0 -0 -0 -0 -1 -1 2 3 2 1 1 1 1 0 0 0 1 1 0 0 -0 0 0 -0 -0 -0 -0 -0 nan
nan -0 -0 -0 0 -0 0 -0 -0 0 0 -0 0 -0 -1 -0 -0 -0 -0 -0 1 2 1 1 1 2 1 1 1 1 1 1 1 0 0 0 0 0 0 -0 -0 -0 -0 nan
nan 0 -0 -0 -0 0 -0 -0 -0 0 0 0 -1 -0 -1 -1 -0 -1 -0 0 1 1 1 2 2 1 1 1 1 0 1 1 0 0 0 0 0 0 0 0 -0 -0 -0 nan
nan 0 -1 -1 -1 0 0 0 -0 -0 0 0 0 -1 -2 -1 -0 -0 0 0 1 1 1 2 1 1 1 1 0 0 1 0 0 0 0 0 0 0 0 0 -0 -0 -0 nan
nan -0 0 -0 -0 -0 0 -0 -1 -0 -0 0 -0 -1 -0 0 -0 -0 1 1 1 1 1 1 2 2 1 0 1 1 1 0 0 -0 -0 0 0 0 0 0 0 0 -0 nan
nan 0 0 0 0 -0 -0 -0 0 0 -0 0 -0 0 -0 0 1 1 1 0 0 0 1 1 2 1 0 1 1 1 1 1 0 -0 0 0 0 0 0 0 0 0 -0 nan
nan -0 0 0 -0 -0 -1 0 -0 0 0 -0 0 0 0 0 0 -0 -0 -0 -0 1 1 1 2 1 1 1 1 1 1 0 0 0 1 1 0 0 0 0 0 0 -0 nan
nan -0 -0 0 0 0 -1 -0 -0 -0 0 -0 0 0 0 0 -0 -1 -1 0 1 1 1 1 1 1 1 1 1 1 1 0 0 1 1 1 0 0 0 0 0 0 -0 nan
nan -0 0 0 0 -0 -0 -0 0 0 -0 -0 -0 -0 -1 -0 -1 -0 0 0 1 1 1 1 1 1 1 1 1 1 1 1 0 1 1 0 0 0 0 0 0 0 -0 nan
nan -0 0 -0 0 -1 -0 -0 0 -0 -1 -1 -0 0 0 0 0 0 1 1 1 1 1 1 1 1 1 1 1 1 1 0 1 1 0 0 0 0 0 0 0 0 0 nan
nan -0 -0 -0 -1 -1 -0 0 0 0 0 -0 -1 -0 0 0 1 1 1 1 1 1 1 1 1 1 1 1 1 1 1 1 1 0 0 0 0 0 0 0 0 0 0 nan
nan -0 -0 -0 -0 -0 -1 0 -0 0 0 -1 -0 -0 -0 0 1 2 2 1 0 1 1 1 1 1 1 1 1 1 1 1 1 0 0 0 0 0 0 0 0 0 0 nan
nan 0 0 0 -1 -1 0 -0 -0 0 0 0 -0 -0 0 1 1 1 1 0 0 1 0 1 1 1 1 1 1 0 1 0 0 0 0 0 0 0 0 0 0 0 0 nan
nan nan nan nan nan nan nan nan nan nan nan nan nan nan nan nan nan nan nan nan nan nan nan nan nan nan nan nan nan nan nan nan nan nan nan nan nan nan nan nan nan nan nan nan
Wind_Speed
4 3 9 12 9 2 3 2 3 5 6 4 5 6 9 3 7 14 24 31 30 28 24 20 17 14 12 11 9 9 9 9 8 6 3 3 3 2 4 7 9 11 13 14
1 8 12 4 5 5 5 4 6 7 7 1 6 7 10 4 10 21 27 28 33 30 28 24 20 16 12 11 10 8 9 10 10 8 6 4 1 2 5 7 9 12 14 15
8 6 2 6 5 6 7 5 5 8 4 2 3 5 7 9 15 13 29 39 36 40 36 29 23 17 13 10 8 8 10 11 11 10 7 4 2 3 5 7 10 13 16 17
8 14 16 9 6 8 8 8 9 6 3 5 1 9 5 6 6 5 15 30 34 38 36 31 26 19 15 11 9 9 10 9 8 7 5 5 2 2 7 11 13 14 15 16
7 3 7 10 7 8 6 7 8 5 5 2 1 2 4 4 5 9 9 25 33 39 40 34 25 20 15 10 10 10 8 7 6 6 5 3 2 5 7 9 11 13 14 15
6 5 2 5 3 5 1 5 6 4 3 6 8 8 7 6 4 5 5 19 29 33 35 30 24 19 15 12 9 6 6 7 5 4 3 2 2 4 6 7 9 12 13 13
8 20 10 10 7 2 4 5 0 2 1 9 9 6 12 5 6 6 8 12 20 26 33 29 25 18 15 12 9 9 8 7 6 4 2 1 3 5 6 8 10 11 12 13
6 6 9 7 21 9 9 8 6 7 5 6 3 6 4 4 9 16 12 19 23 27 29 27 22 19 16 13 10 8 7 7 5 4 4 4 5 6 7 8 9 10 11 12
5 6 5 5 6 13 7 11 8 2 2 1 4 2 2 3 6 14 19 23 23 24 26 28 26 25 25 21 16 9 9 9 9 7 7 6 6 6 7 7 8 9 10 10
4 7 3 3 2 4 11 7 2 2 8 9 3 4 5 6 6 8 11 21 26 26 29 30 31 31 25 22 16 13 12 11 11 10 9 8 6 6 7 7 7 8 8 9
1 2 5 5 4 1 1 3 1 3 3 8 2 5 4 7 9 9 10 25 32 33 34 36 36 32 29 25 20 15 13 9 8 10 10 8 6 6 6 6 6 8 8 9
3 2 4 6 1 2 3 3 3 4 3 0 2 5 2 6 6 10 18 24 27 27 29 36 36 36 31 27 22 17 12 9 9 11 9 7 5 5 5 5 6 8 8 8
2 2 4 4 3 5 6 4 3 2 1 2 3 4 4 3 5 13 14 24 25 29 28 33 35 35 34 30 24 19 14 10 12 11 9 7 6 6 5 6 7 7 7 7
3 5 5 3 2 4 2 10 9 1 2 2 6 12 17 6 5 9 21 28 26 28 31 33 36 37 37 30 27 24 19 13 11 10 9 7 6 6 6 5 5 5 5 5
3 4 2 5 5 1 6 9 14 12 11 7 10 11 19 18 9 15 10 10 18 23 30 35 36 36 37 33 30 25 21 13 11 10 8 7 7 7 6 5 3 3 3 4
10 5 8 16 17 10 6 12 8 11 12 13 16 18 21 23 14 10 8 8 12 19 26 31 30 35 39 36 31 26 21 12 12 11 8 8 9 8 6 4 2 1 2 3
7 7 5 10 1 1 4 12 14 13 10 8 8 12 6 5 6 13 14 15 18 19 22 27 31 34 37 36 30 26 19 12 14 12 10 10 9 7 5 3 2 1 0 2
5 4 2 2 2 6 6 2 2 3 6 6 4 4 9 14 18 14 14 14 15 15 18 24 29 32 32 30 27 23 17 16 15 11 11 11 10 8 6 5 3 2 0 2
5 4 3 3 5 5 8 3 4 4 8 8 8 8 5 3 3 7 11 10 10 14 20 24 29 30 28 31 28 23 17 17 15 13 13 11 9 8 8 7 4 2 1 2
5 2 4 3 4 5 6 6 5 3 8 5 9 6 7 9 1 4 7 11 12 13 19 22 24 25 28 27 24 22 20 17 16 13 12 11 10 10 9 7 5 1 1 3
4 1 6 6 4 6 5 5 9 4 8 10 5 8 14 6 9 10 10 11 11 13 17 20 23 26 27 25 26 23 17 16 14 13 13 12 12 12 10 8 5 2 2 4
6 4 3 1 2 8 6 4 6 5 11 15 19 22 17 17 14 13 12 12 13 15 19 21 25 25 26 26 23 19 16 16 15 15 14 14 15 14 12 9 7 4 3 5
2 7 4 8 6 6 14 8 7 8 17 22 24 26 22 18 17 15 13 13 15 17 20 20 23 26 25 22 18 16 17 17 18 16 17 16 15 13 11 8 7 6 5 5
4 5 3 1 4 8 18 10 9 13 14 20 18 16 14 16 14 15 14 15 16 19 22 23 24 24 22 18 16 15 17 19 17 19 19 17 14 13 11 9 9 8 7 6
6 7 5 5 7 12 20 15 15 11 7 15 20 16 15 14 13 12 13 15 17 19 22 22 23 21 19 19 18 19 20 18 20 20 18 17 15 13 13 12 10 9 10 6
9 6 5 6 11 12 17 18 14 12 10 14 21 18 16 13 10 8 13 16 18 20 21 21 21 19 20 19 18 19 19 20 22 21 20 17 15 14 13 11 11 10 8 6
Wind_Direction
216 144 217 204 201 149 121 214 279 277 276 293 242 247 250 263 148 179 182 187 190 190 188 191 190 191 186 175 180 175 178 185 206 220 226 271 306 354 0 358 355 349 342 337
288 243 236 169 203 242 266 262 269 288 260 233 275 253 268 209 217 205 191 189 194 188 188 190 192 192 180 185 174 170 179 178 190 206 201 184 118 11 4 2 355 348 345 342
192 226 196 201 201 210 230 208 237 238 301 276 306 258 242 252 222 221 206 213 201 197 190 187 189 188 182 182 169 160 160 157 162 162 157 138 82 17 4 354 356 353 349 347
243 235 256 253 234 192 228 208 224 221 141 240 66 287 266 240 240 254 200 197 194 197 195 188 185 178 182 180 167 159 159 159 151 140 146 123 114 3 1 357 354 356 353 354
234 241 212 241 219 203 239 207 203 178 201 131 224 244 251 183 248 258 238 201 193 193 192 184 181 180 173 173 174 170 166 163 152 151 155 111 25 9 358 351 349 355 360 2
236 290 224 210 299 174 91 95 59 60 113 252 173 178 251 218 203 281 280 207 188 181 185 180 174 166 163 173 175 173 184 189 175 174 160 122 35 12 357 354 353 359 4 8
262 255 249 252 266 239 138 120 127 281 199 247 181 197 248 331 326 259 246 169 165 170 180 174 168 168 177 181 187 196 203 211 203 213 226 315 346 352 341 348 352 356 357 4
196 305 182 209 214 188 205 172 173 189 210 252 192 235 253 47 44 63 116 151 157 169 177 172 175 185 186 185 197 213 224 231 235 262 294 310 324 334 337 344 349 347 348 355
204 256 227 180 216 182 199 215 192 174 58 84 208 183 9 30 75 89 103 128 145 165 176 182 193 207 202 193 190 220 246 254 258 274 287 296 315 322 328 336 346 338 347 346
277 280 232 274 152 233 201 156 91 323 210 232 236 227 192 192 150 140 144 146 164 178 187 200 204 203 198 200 204 211 220 224 229 241 254 274 288 312 326 334 339 341 353 349
43 175 283 356 52 10 238 178 39 144 150 223 215 255 210 172 175 178 187 177 179 188 197 204 208 204 203 202 206 206 218 226 234 245 254 265 282 301 324 330 339 339 343 345
93 47 287 225 259 39 62 76 93 134 182 74 96 271 258 198 198 184 193 201 201 205 214 214 210 206 202 204 201 210 216 231 249 252 248 257 278 291 307 319 340 340 340 344
60 21 323 310 122 37 46 4 46 50 76 204 147 248 319 314 251 245 220 213 219 218 219 213 209 207 204 202 206 207 203 228 229 227 227 247 268 281 298 318 331 338 340 347
42 172 202 271 86 112 304 318 313 300 180 279 251 291 289 266 263 269 260 246 233 224 223 215 212 210 207 205 205 206 203 222 229 232 237 260 268 273 290 307 322 335 339 344
77 257 303 282 313 320 207 216 249 248 263 271 286 307 300 284 255 262 240 262 244 225 222 221 216 210 209 205 205 206 209 211 221 223 241 257 255 264 273 286 312 333 343 353
163 247 280 281 278 267 262 257 249 252 242 238 234 260 247 266 287 264 256 238 223 221 224 219 219 215 211 208 204 207 209 211 220 228 243 246 247 247 246 263 286 345 359 0
171 177 173 250 341 326 246 247 238 253 255 212 195 234 301 269 259 249 238 232 234 230 221 220 220 217 214 207 209 208 208 212 218 228 235 237 236 231 226 222 222 236 124 29
154 169 168 199 203 249 235 222 179 254 260 243 259 243 249 248 264 247 238 243 244 240 237 228 222 219 215 208 207 204 208 208 217 229 233 228 223 217 208 202 195 194 101 27
168 135 169 205 237 311 294 282 162 194 263 243 231 246 227 209 170 258 239 249 253 243 243 231 224 219 214 209 204 204 200 213 220 224 221 214 206 202 198 194 200 203 90 19
115 90 153 156 217 226 251 205 236 93 281 218 220 192 171 157 103 253 225 247 257 240 234 230 220 215 212 205 203 197 211 216 216 209 205 197 192 193 194 188 193 202 8 2
148 114 192 223 228 265 228 249 302 235 268 315 211 170 165 193 219 269 266 260 247 226 218 215 214 209 204 204 198 211 212 212 205 198 190 186 183 180 184 188 191 229 318 338
168 164 205 102 146 263 178 101 175 223 290 281 275 277 250 248 255 264 266 248 226 214 208 209 206 200 195 198 205 214 207 199 194 185 184 184 181 181 182 184 197 225 273 319
210 189 188 183 212 224 195 212 254 259 270 277 276 285 273 258 248 248 244 233 216 208 204 202 197 190 194 207 215 208 199 193 181 184 186 184 180 180 184 193 210 222 252 286
221 172 200 17 254 247 262 260 275 290 277 285 277 276 265 255 249 237 234 226 218 202 194 191 192 200 205 207 202 201 198 192 196 190 188 186 188 188 193 202 219 234 246 246
197 146 185 263 282 289 273 251 285 272 296 292 271 269 269 255 248 237 229 228 221 210 200 203 209 209 208 206 201 196 200 199 191 193 187 185 187 193 200 203 220 227 217 203
185 169 176 232 208 228 248 258 268 256 265 270 263 264 249 241 248 256 243 227 222 213 207 211 216 212 211 206 201 200 196 192 196 190 189 188 187 184 185 192 188 186 186 152
Height
1504 1507 1506 1498 1498 1496 1498 1501 1504 1499 1491 1490 1487 1488 1482 1480 1482 1485 1486 1489 1492 1495 1497 1499 1501 1503 1504 1505 1507 1509 1509 1509 1509 1508 1507 1508 1509 1508 1506 1506 1505 1503 1501 1499
1506 1507 1492 1493 1495 1500 1502 1504 1505 1497 1491 1492 1490 1489 1481 1478 1477 1476 1480 1484 1486 1490 1492 1495 1498 1501 1503 1505 1506 1508 1509 1509 1510 1510 1508 1508 1509 1509 1507 1505 1503 1502 1500 1497
1500 1492 1487 1491 1492 1495 1497 1501 1501 1499 1491 1490 1491 1492 1484 1474 1471 1469 1471 1471 1478 1480 1485 1490 1495 1499 1502 1505 1506 1507 1510 1510 1509 1508 1508 1507 1508 1508 1507 1506 1503 1500 1499 1496
1493 1485 1486 1489 1491 1490 1496 1487 1489 1492 1498 1508 1491 1495 1484 1475 1469 1466 1467 1470 1474 1478 1484 1489 1493 1498 1501 1503 1504 1506 1509 1510 1511 1510 1509 1506 1507 1508 1507 1505 1503 1500 1497 1495
1485 1481 1484 1485 1483 1482 1484 1480 1485 1488 1495 1498 1497 1503 1480 1474 1475 1471 1466 1467 1470 1472 1477 1485 1492 1497 1500 1503 1505 1505 1508 1511 1510 1510 1509 1506 1507 1505 1505 1504 1503 1499 1497 1494
1482 1479 1479 1478 1475 1475 1475 1482 1489 1496 1501 1505 1496 1498 1470 1478 1472 1469 1467 1466 1468 1473 1479 1487 1492 1495 1500 1503 1505 1506 1508 1508 1509 1510 1507 1504 1505 1505 1505 1503 1502 1498 1497 1494
1481 1473 1476 1478 1479 1475 1476 1485 1504 1509 1511 1495 1482 1492 1470 1469 1468 1465 1461 1470 1474 1478 1481 1486 1491 1495 1498 1501 1501 1504 1506 1506 1507 1509 1507 1506 1504 1502 1503 1500 1498 1497 1496 1492
1488 1482 1468 1463 1466 1476 1475 1478 1494 1498 1499 1489 1486 1489 1475 1472 1467 1461 1460 1468 1474 1479 1482 1488 1494 1495 1495 1498 1503 1506 1506 1507 1506 1507 1505 1503 1503 1500 1500 1498 1496 1495 1495 1492
1481 1473 1454 1456 1456 1465 1471 1473 1466 1478 1486 1494 1487 1478 1472 1471 1469 1465 1466 1470 1475 1481 1484 1487 1487 1490 1490 1488 1493 1495 1501 1502 1503 1503 1503 1502 1500 1500 1498 1496 1494 1495 1492 1492
1469 1472 1456 1451 1450 1455 1458 1462 1481 1490 1486 1486 1481 1477 1476 1472 1472 1469 1469 1468 1471 1478 1481 1481 1484 1483 1487 1490 1495 1496 1496 1496 1496 1496 1499 1500 1500 1498 1496 1496 1494 1495 1491 1491
1465 1471 1464 1456 1460 1463 1461 1464 1467 1470 1479 1473 1480 1480 1465 1466 1466 1467 1468 1465 1462 1466 1471 1474 1476 1480 1482 1487 1491 1493 1494 1495 1495 1494 1497 1497 1496 1496 1494 1495 1494 1494 1492 1489
1467 1471 1475 1461 1458 1461 1464 1465 1467 1480 1476 1483 1484 1484 1465 1462 1461 1463 1466 1466 1466 1466 1465 1468 1471 1475 1479 1484 1486 1491 1490 1491 1492 1493 1494 1495 1493 1494 1493 1494 1491 1492 1491 1489
1473 1481 1482 1466 1464 1465 1473 1472 1471 1473 1475 1474 1482 1477 1463 1463 1463 1463 1463 1465 1463 1462 1463 1465 1469 1470 1476 1478 1483 1485 1488 1489 1490 1490 1490 1491 1491 1494 1492 1491 1490 1489 1489 1488
1471 1475 1478 1480 1474 1475 1483 1479 1474 1477 1486 1482 1482 1480 1469 1468 1464 1464 1462 1459 1457 1459 1460 1461 1464 1467 1472 1473 1480 1482 1483 1485 1486 1487 1488 1488 1489 1491 1491 1490 1489 1488 1488 1488
1475 1478 1473 1471 1470 1470 1475 1476 1474 1476 1479 1489 1480 1476 1472 1465 1461 1457 1452 1453 1452 1453 1455 1456 1459 1464 1469 1471 1475 1478 1481 1482 1484 1486 1486 1486 1488 1489 1489 1489 1487 1487 1488 1487
1475 1484 1477 1472 1469 1469 1471 1470 1469 1464 1464 1469 1473 1473 1460 1454 1454 1452 1448 1448 1449 1450 1449 1453 1455 1458 1461 1466 1469 1474 1478 1480 1483 1485 1484 1486 1487 1487 1487 1487 1487 1486 1487 1488
1471 1471 1478 1474 1472 1470 1472 1464 1461 1456 1454 1455 1468 1457 1453 1452 1451 1449 1448 1448 1448 1447 1446 1447 1450 1453 1456 1460 1466 1470 1475 1478 1481 1482 1483 1484 1485 1485 1485 1485 1486 1486 1487 1487
1467 1469 1475 1474 1475 1476 1457 1455 1455 1454 1452 1452 1452 1452 1450 1448 1448 1447 1446 1447 1444 1444 1444 1446 1448 1451 1455 1460 1464 1468 1472 1476 1478 1479 1481 1482 1483 1484 1484 1485 1486 1487 1486 1486
1459 1468 1477 1476 1471 1463 1454 1450 1454 1452 1452 1449 1449 1446 1447 1447 1446 1445 1444 1442 1441 1442 1442 1443 1445 1450 1454 1458 1462 1465 1469 1473 1475 1476 1478 1480 1481 1482 1484 1485 1485 1486 1486 1487
1458 1461 1472 1478 1476 1486 1454 1444 1443 1448 1454 1443 1443 1442 1444 1447 1454 1446 1440 1440 1439 1438 1440 1442 1445 1448 1452 1457 1459 1464 1467 1471 1473 1474 1477 1478 1480 1482 1483 1484 1484 1485 1486 1487
1460 1470 1469 1464 1472 1456 1442 1442 1444 1456 1450 1442 1441 1440 1441 1443 1438 1436 1435 1435 1435 1437 1439 1441 1444 1447 1450 1454 1460 1463 1466 1469 1472 1474 1476 1478 1480 1481 1482 1483 1484 1485 1486 1487
1452 1463 1472 1474 1481 1467 1437 1440 1446 1442 1437 1438 1437 1436 1435 1434 1432 1432 1432 1433 1433 1435 1436 1439 1442 1446 1451 1455 1458 1461 1464 1467 1470 1472 1475 1477 1478 1480 1482 1484 1485 1486 1487 1488
1458 1448 1457 1452 1445 1432 1431 1432 1433 1434 1433 1434 1434 1432 1430 1430 1429 1429 1429 1430 1431 1433 1435 1438 1443 1446 1451 1455 1456 1459 1463 1466 1468 1471 1474 1476 1478 1480 1482 1484 1485 1486 1488 1488
1438 1436 1443 1440 1432 1431 1431 1431 1431 1431 1429 1430 1429 1428 1427 1427 1426 1427 1427 1429 1430 1432 1435 1438 1442 1445 1448 1452 1455 1459 1462 1464 1466 1470 1473 1475 1477 1479 1481 1483 1485 1487 1487 1488
1432 1432 1434 1437 1430 1429 1428 1427 1427 1426 1424 1424 1424 1423 1423 1424 1424 1424 1426 1428 1430 1432 1435 1438 1440 1444 1447 1449 1453 1456 1460 1462 1465 1469 1472 1474 1476 1478 1480 1483 1485 1487 1488 1488
1422 1425 1431 1429 1422 1422 1418 1421 1421 1421 1419 1418 1420 1419 1420 1421 1421 1421 1423 1426 1428 1431 1433 1436 1439 1442 1445 1448 1451 1454 1457 1461 1464 1468 1470 1472 1475 1478 1481 1483 1484 1486 1488 1488